Location: Feydey
(46.3431°N, 7.0106°E)
Time: 06:13:59
(UTC+00:00)

Cosmos 389 Rocket - Pass Details

Date: 20 June 2021
Orbit: 440 x 471 km, 81.1° (Epoch: 28 July)

Event Time Altitude Azimuth Distance (km) Brightness Sun altitude
Rises 21:17:21 0° 356° (N) 2,448 7.3 -13.7°
Reaches altitude 10° 21:19:32 10° 6° (N) 1,575 6.0 -13.9°
Maximum altitude 21:22:43 36° 74° (ENE) 734 3.3 -14.2°
Enters shadow 21:24:06 25° 121° (ESE) 948 3.5 -14.3°
